Location: Cicognara
(44.9500°N, 10.4667°E)
Time: 23:37:24
(UTC+00:00)

ALOS 2 - Pass Details

Date: 20 June 2021
Orbit: 630 x 632 km, 97.9° (Epoch: 23 July)

Event Time Altitude Azimuth Distance (km) Brightness Sun altitude
Exits shadow 23:35:19 27° 254° (WSW) 1,220 3.9 -21.5°
Maximum altitude 23:35:46 28° 265° (W) 1,205 3.9 -21.5°
Drops below altitude 10° 23:39:33 10° 324° (NW) 2,023 5.8 -21.5°
Sets 23:42:02 0° 336° (NNW) 2,936 7.0 -21.4°
